Temperature
15 15 15 15 15 15 15 15 15 15 16 16 16 16 16 16 16 16 16 16 15 15 15 16 16 16 16 16 16 15 15 15 15 15 15 15 15 15 15 15 15 15 15
15 15 15 15 15 15 15 15 15 15 15 15 15 15 15 16 16 16 15 15 15 15 15 15 15 15 15 15 15 15 15 15 15 15 15 15 15 15 15 15 15 15 15
15 15 15 15 15 15 15 15 15 15 15 15 15 15 15 15 15 15 15 15 15 15 15 15 15 15 15 15 15 15 15 15 15 15 15 15 15 15 15 15 15 15 15
14 14 15 15 15 15 15 15 15 15 15 15 15 15 15 15 15 15 15 15 15 15 15 15 15 15 15 15 15 15 15 15 14 14 14 14 14 14 14 14 14 14 14
14 14 14 14 15 15 15 15 15 15 15 15 15 15 15 15 15 15 15 15 15 15 15 15 15 15 14 15 15 15 14 14 14 14 14 14 14 14 14 14 14 14 14
14 14 14 14 14 14 14 15 15 15 14 14 15 15 15 15 15 14 15 15 15 14 14 14 14 14 14 14 14 14 14 14 14 13 13 14 14 14 14 14 14 14 14
14 14 14 14 14 14 14 14 14 14 14 14 14 14 14 14 14 14 14 14 14 14 14 14 14 14 14 14 14 14 14 13 13 13 13 13 14 14 14 14 14 14 14
13 13 13 13 13 14 14 14 14 14 14 14 14 14 14 14 14 14 14 14 14 14 14 14 14 14 14 14 14 14 13 13 13 13 13 13 13 13 13 13 13 14 14
13 13 13 13 13 13 13 13 13 13 13 14 14 14 14 14 14 14 14 14 14 14 14 14 14 14 14 14 14 13 13 13 13 13 13 13 13 13 13 13 13 13 13
13 13 13 13 13 13 13 13 13 13 13 13 13 14 14 14 13 13 13 13 14 14 14 14 14 14 14 14 14 13 13 13 13 12 12 13 13 13 13 13 13 13 13
12 12 12 12 12 12 12 12 12 13 13 13 13 13 13 13 13 13 13 13 13 13 13 13 13 13 13 13 13 13 13 12 12 12 12 12 12 12 12 12 12 12 12
12 12 12 12 12 12 12 12 12 12 12 12 12 13 13 13 13 13 13 13 13 13 13 13 13 13 13 13 13 13 12 12 12 12 12 12 12 12 12 12 12 12 12
12 12 12 12 12 12 12 12 12 12 12 12 12 12 12 12 12 12 13 12 12 13 12 12 12 13 13 13 13 12 12 12 12 12 12 12 12 12 12 12 12 12 12
11 11 12 12 12 12 11 11 11 11 11 12 12 12 12 12 12 12 12 12 12 12 12 12 12 12 12 12 12 12 12 12 12 12 12 12 12 12 12 12 12 12 11
11 11 11 11 11 11 11 11 11 11 11 11 11 11 11 11 12 12 12 12 12 12 12 12 12 12 12 12 12 12 11 11 12 11 11 11 11 11 11 11 11 11 11
11 11 11 11 11 11 11 11 11 11 11 11 11 11 11 11 11 11 11 11 11 11 11 12 11 11 11 11 11 11 11 11 11 11 11 11 11 11 11 11 11 11 11
10 11 11 11 11 11 11 11 11 11 11 11 11 10 11 11 11 11 11 11 11 11 11 11 11 11 11 11 11 11 11 11 11 11 11 11 11 11 11 11 11 11 11
10 10 10 10 10 10 10 10 10 10 10 10 10 10 10 10 10 10 10 10 11 11 11 11 11 11 11 11 10 10 10 10 10 10 10 10 10 10 11 11 11 11 10
10 10 10 10 10 10 10 10 10 10 10 10 10 10 10 10 10 10 10 10 10 10 10 10 10 10 10 10 10 10 10 10 10 10 10 10 10 10 10 10 10 10 10
10 10 10 10 10 10 10 10 10 10 10 10 10 10 10 10 10 10 10 10 10 10 10 10 10 10 10 10 10 10 10 10 10 10 10 10 10 10 10 10 10 10 10
10 10 9 9 9 9 10 10 10 10 10 9 9 9 9 9 9 9 9 9 9 9 10 10 9 9 9 9 9 9 9 9 9 9 9 9 9 9 9 9 10 10 10
9 9 9 9 9 9 9 9 9 9 9 9 9 9 9 9 9 9 9 9 9 9 9 9 9 9 9 9 8 8 8 8 8 9 9 9 9 9 9 9 9 9 9
9 9 9 9 9 9 9 9 9 9 9 9 9 9 9 9 8 8 8 8 8 8 8 8 8 8 8 8 8 8 8 8 7 8 8 8 8 8 8 9 9 9 9
8 9 9 9 8 9 9 9 8 8 8 8 8 8 8 8 8 8 8 8 8 8 8 8 8 8 8 8 8 8 8 8 8 7 7 7 8 8 8 8 8 8 8
8 8 8 8 8 8 8 8 8 8 8 8 8 8 8 8 8 8 8 8 7 7 7 7 7 7 7 8 8 8 8 8 8 8 7 7 7 7 7 7 8 8 8
8 8 8 8 8 8 8 8 8 7 7 7 7 7 7 7 7 7 7 7 7 7 7 7 7 7 7 7 7 7 7 7 7 7 7 7 7 7 7 7 7 7 7
Wind_Speed
6 9 10 8 7 8 7 7 6 6 6 6 6 6 6 6 6 6 6 6 6 7 7 8 9 9 10 11 11 12 12 12 13 13 13 13 13 12 12 13 13 13 15
7 10 10 8 7 7 7 7 6 6 6 5 5 5 5 6 6 6 6 6 6 7 7 8 8 9 10 11 11 11 11 11 12 13 13 12 12 12 12 13 13 13 15
8 9 9 8 7 7 7 7 6 6 5 5 4 4 5 5 6 6 5 6 6 7 7 8 8 9 10 10 11 10 10 9 10 10 11 11 11 11 12 13 13 14 14
7 9 8 7 6 6 6 6 6 5 5 4 4 4 4 4 5 5 5 5 6 6 7 8 8 9 10 10 10 9 8 7 6 6 8 10 10 10 11 12 13 13 13
7 9 8 7 6 6 6 6 5 5 4 4 4 3 3 3 4 4 5 5 6 7 8 8 9 9 9 10 9 8 7 5 3 4 8 11 10 11 11 11 11 12 12
7 8 8 7 6 5 5 5 4 4 4 3 3 3 2 2 3 4 5 5 6 8 8 8 9 9 9 9 8 7 5 3 2 4 9 11 11 11 11 10 10 11 11
5 7 8 7 6 5 4 4 4 3 3 3 2 2 2 2 3 4 5 6 7 7 8 8 9 9 8 8 7 6 4 3 3 6 9 11 11 11 10 10 10 11 11
5 6 6 6 6 5 4 4 4 3 3 2 2 2 1 1 2 3 5 6 7 7 7 8 8 8 8 8 7 5 4 2 4 6 9 11 11 10 9 9 10 11 11
4 5 4 5 5 5 4 4 4 3 2 2 1 1 1 2 2 3 5 7 7 7 8 8 8 8 8 8 7 5 3 2 3 6 8 10 10 9 9 9 10 11 11
3 3 3 3 4 5 4 4 4 3 2 2 2 2 2 2 3 3 4 7 8 8 8 8 7 7 8 8 7 6 3 2 3 6 8 9 10 9 8 9 9 10 10
2 2 2 2 3 3 3 4 4 4 3 3 2 3 2 2 3 4 4 7 8 8 8 8 7 7 8 7 7 6 4 3 4 6 8 9 9 8 8 8 9 9 9
2 2 2 2 2 2 1 2 3 3 3 2 2 3 3 3 3 3 5 7 8 9 9 9 8 8 7 6 5 6 4 4 5 6 8 9 9 8 8 8 8 9 9
1 1 2 2 2 2 1 1 1 1 2 1 1 1 1 2 2 2 3 5 7 8 7 8 8 7 6 6 5 5 4 4 5 7 8 9 9 8 8 8 8 8 8
2 1 2 2 2 2 2 0 1 1 1 1 0 1 0 1 1 1 2 3 5 5 5 5 5 6 6 6 6 5 4 4 6 7 8 9 8 8 8 8 8 8 8
1 1 3 3 2 3 2 1 1 1 1 1 1 1 1 1 1 1 1 2 3 4 4 4 3 4 4 4 5 5 4 5 7 8 7 8 8 8 8 8 8 8 8
2 1 2 3 3 2 2 2 1 1 1 1 1 1 2 1 1 2 1 2 2 3 4 4 3 3 3 2 2 3 4 5 6 8 8 8 8 7 7 8 7 8 8
2 2 2 2 2 3 3 3 2 2 2 1 1 2 2 2 2 1 2 2 2 3 3 3 4 3 3 3 2 2 3 4 6 7 8 7 7 6 6 6 6 7 8
2 2 3 2 2 2 3 2 2 2 2 2 2 2 3 3 3 2 2 2 2 3 2 2 3 3 3 3 2 2 2 3 4 6 7 7 7 6 6 5 5 5 6
3 3 3 3 2 2 2 2 2 1 1 1 2 2 2 3 3 2 2 2 3 2 2 2 2 3 3 3 3 2 2 2 3 4 5 6 7 7 6 5 5 4 5
3 3 3 3 3 2 2 1 1 1 1 1 1 2 3 3 3 2 1 2 2 2 2 2 2 2 3 3 3 3 2 2 2 2 4 5 6 7 7 6 6 4 4
2 2 3 3 2 2 2 2 2 1 1 1 1 2 3 3 3 3 2 2 1 2 3 4 3 4 3 3 3 2 2 2 2 1 2 3 4 6 6 6 6 5 4
3 2 3 3 3 2 2 1 2 1 1 1 1 1 3 3 3 3 3 2 2 2 3 4 4 3 2 2 2 2 1 1 1 1 0 1 2 4 4 5 6 6 5
2 3 2 3 3 3 3 1 1 1 1 1 1 2 2 3 3 3 4 3 2 3 4 4 4 3 4 2 2 3 3 3 1 1 1 1 1 1 2 3 4 5 6
1 1 2 2 3 3 3 3 3 2 2 2 2 2 2 3 3 4 4 4 3 3 4 4 3 3 5 4 2 1 1 2 2 1 1 1 2 2 2 2 3 4 5
2 2 1 1 2 2 3 3 3 3 2 2 2 2 2 2 2 3 4 4 3 3 4 4 4 4 4 4 3 2 0 0 1 2 2 2 1 2 2 2 3 4 5
2 2 1 1 1 2 3 3 4 4 3 3 2 2 2 2 2 3 3 4 3 3 3 4 4 5 4 4 3 3 2 2 2 2 2 2 2 2 2 2 2 4 5
Wind_Direction
105 113 116 109 103 99 95 92 93 93 96 101 101 99 112 116 109 108 106 106 110 122 123 116 112 109 105 101 99 97 96 95 94 93 91 90 90 88 86 89 88 88 90
112 116 119 112 109 103 99 93 92 93 96 97 101 102 108 124 121 116 113 113 113 120 122 121 115 113 110 108 105 106 105 104 104 103 98 90 88 88 85 85 90 94 93
111 115 118 114 112 108 103 96 90 95 101 101 100 102 105 118 130 127 125 120 117 118 120 116 116 114 112 110 108 110 114 117 119 121 114 106 99 95 93 92 95 98 95
107 111 117 118 116 112 110 104 95 98 104 105 102 102 107 115 128 133 133 132 127 122 122 118 118 117 115 114 114 117 123 132 138 137 124 113 107 106 102 101 101 100 97
93 104 112 118 119 117 114 111 100 94 99 104 106 110 116 121 135 141 136 135 133 128 123 123 123 121 119 120 122 127 136 147 157 128 104 105 107 111 105 105 104 102 100
92 99 112 120 119 116 116 113 107 97 99 101 103 111 122 132 130 143 142 132 131 130 128 130 129 129 125 125 131 139 150 158 137 113 110 110 109 111 106 104 106 106 104
97 99 116 125 127 125 123 120 114 105 101 105 104 109 117 132 129 137 144 135 130 129 127 132 133 134 133 132 137 148 157 144 112 93 99 106 112 115 111 108 110 107 106
98 97 113 123 130 132 131 133 132 122 108 112 130 128 113 146 147 145 150 145 140 137 139 139 141 141 141 139 140 145 142 129 118 107 104 107 115 118 115 113 113 109 107
92 101 113 135 136 134 139 147 150 145 138 137 154 152 137 145 158 155 161 159 155 149 146 141 143 147 147 143 145 150 141 125 96 102 107 113 121 123 120 119 117 112 109
106 115 117 128 137 142 149 154 165 167 175 172 164 161 157 166 173 166 166 169 164 160 155 149 145 147 150 149 151 156 163 143 113 105 106 119 127 128 127 125 122 118 113
130 135 123 119 118 126 152 162 172 177 187 185 175 176 172 179 179 179 181 171 168 166 162 158 152 150 146 154 160 163 168 167 123 110 114 129 133 132 130 129 124 121 118
180 159 141 130 107 101 125 148 164 175 173 187 191 179 191 189 172 166 173 176 172 169 166 163 162 153 147 153 164 171 178 170 131 117 125 136 140 140 137 133 126 122 120
176 172 148 139 131 121 84 78 113 126 132 175 194 197 197 164 152 133 135 163 166 164 162 162 161 161 161 158 164 175 181 150 124 118 131 142 146 147 145 138 134 131 127
186 188 168 148 153 144 124 70 96 74 81 76 242 220 72 102 125 139 152 159 159 163 160 160 166 162 163 160 166 171 156 133 120 116 128 141 151 153 150 147 144 141 138
201 204 172 151 162 155 149 165 135 96 82 132 154 190 155 122 148 130 136 150 168 162 154 156 165 154 150 155 169 154 138 130 122 118 121 130 137 147 155 155 153 151 148
205 205 165 164 169 161 162 169 165 129 137 144 148 171 153 134 137 149 147 153 159 163 162 163 162 145 139 129 131 128 129 130 129 125 123 126 133 140 150 159 160 161 160
207 187 161 172 173 178 182 180 161 153 147 149 172 178 153 139 142 145 161 161 141 152 157 154 143 130 133 121 121 111 114 120 119 126 131 132 132 134 143 154 165 168 169
188 171 162 163 163 188 181 176 169 166 167 172 175 177 160 152 155 146 158 160 139 134 129 151 151 139 135 125 117 105 87 101 113 120 127 132 134 132 132 139 148 162 174
183 172 162 150 162 178 176 172 165 156 182 174 168 165 164 157 153 131 154 143 136 132 144 157 148 142 135 120 103 81 66 79 98 116 120 123 125 124 126 126 129 143 170
172 169 157 154 162 149 140 138 133 166 166 114 137 161 163 153 149 126 136 137 132 152 152 145 141 116 128 129 104 75 52 47 60 95 122 123 128 132 136 137 133 135 142
160 168 165 164 166 138 142 165 168 194 184 183 190 166 157 153 150 129 136 147 150 168 162 144 135 123 111 110 100 78 34 33 40 49 94 124 134 141 143 145 146 147 153
168 176 173 161 157 157 177 179 167 161 169 193 192 151 153 156 152 142 137 152 163 166 164 158 147 138 142 138 129 114 108 357 351 340 9 136 137 135 139 156 160 159 158
161 171 175 164 165 170 167 148 131 122 142 180 171 177 172 168 158 145 143 155 172 171 174 172 163 151 160 173 156 149 161 193 223 256 244 173 146 130 147 163 168 169 166
162 149 158 163 162 165 162 168 179 183 197 202 181 177 171 172 169 157 153 161 175 176 176 178 163 162 162 173 192 220 185 149 157 180 263 240 194 187 190 179 171 175 174
119 123 146 163 162 166 177 184 189 200 205 186 168 167 173 178 176 160 157 162 177 183 181 177 167 170 174 176 181 186 177 97 142 163 208 223 239 221 200 184 179 186 184
104 106 133 151 164 165 180 195 191 196 199 189 184 180 184 177 179 172 169 171 178 180 181 177 177 178 181 179 180 177 176 179 191 177 195 209 231 241 215 188 180 183 187
Height
1507 1508 1509 1510 1511 1513 1514 1515 1517 1518 1519 1520 1521 1522 1523 1524 1525 1526 1527 1528 1529 1530 1531 1532 1533 1534 1535 1535 1536 1537 1538 1538 1539 1540 1541 1542 1543 1543 1544 1545 1545 1546 1547
1507 1507 1509 1510 1511 1513 1514 1515 1516 1518 1519 1520 1521 1522 1523 1524 1525 1526 1527 1529 1530 1531 1532 1533 1534 1534 1535 1536 1537 1538 1539 1540 1540 1541 1542 1543 1544 1545 1545 1546 1547 1548 1548
1506 1507 1508 1509 1511 1512 1514 1515 1516 1517 1519 1520 1521 1522 1523 1524 1525 1526 1527 1529 1530 1531 1532 1533 1534 1535 1536 1537 1538 1539 1540 1541 1542 1542 1543 1544 1545 1546 1547 1547 1548 1549 1550
1506 1506 1507 1509 1510 1512 1513 1514 1516 1517 1518 1520 1521 1522 1523 1524 1525 1526 1527 1528 1530 1531 1532 1533 1534 1535 1536 1537 1538 1540 1541 1542 1543 1544 1544 1545 1546 1547 1548 1548 1549 1550 1551
1506 1506 1507 1508 1510 1511 1512 1514 1515 1516 1518 1519 1520 1522 1523 1524 1525 1526 1527 1528 1529 1531 1532 1533 1534 1535 1536 1538 1539 1540 1542 1543 1544 1545 1545 1546 1547 1548 1549 1549 1550 1551 1552
1505 1505 1506 1508 1509 1510 1511 1513 1514 1516 1517 1518 1520 1521 1522 1523 1524 1525 1526 1527 1529 1530 1531 1532 1534 1535 1536 1538 1539 1540 1542 1543 1544 1546 1546 1547 1548 1548 1549 1550 1551 1552 1553
1504 1504 1506 1507 1508 1509 1510 1512 1513 1515 1516 1517 1519 1520 1521 1522 1523 1524 1526 1527 1528 1529 1531 1532 1533 1534 1536 1537 1539 1540 1542 1544 1545 1546 1547 1547 1548 1549 1550 1551 1552 1552 1553
1503 1503 1505 1506 1507 1508 1509 1511 1512 1513 1515 1516 1517 1519 1520 1521 1522 1523 1525 1526 1527 1528 1530 1531 1533 1534 1535 1537 1538 1540 1542 1543 1545 1546 1547 1547 1548 1549 1550 1551 1552 1553 1554
1502 1502 1503 1505 1506 1507 1508 1509 1510 1512 1513 1514 1516 1517 1518 1520 1521 1522 1523 1525 1526 1527 1529 1530 1532 1533 1535 1536 1538 1540 1542 1543 1544 1546 1546 1547 1548 1549 1550 1551 1552 1553 1554
1501 1501 1502 1503 1504 1505 1506 1507 1509 1510 1511 1513 1514 1515 1516 1518 1519 1520 1522 1523 1525 1526 1528 1529 1531 1533 1534 1536 1537 1539 1541 1543 1544 1545 1546 1547 1548 1549 1550 1551 1552 1553 1554
1500 1500 1501 1502 1503 1504 1504 1506 1507 1508 1509 1511 1512 1513 1515 1516 1517 1518 1520 1522 1523 1525 1526 1528 1530 1531 1533 1535 1536 1538 1540 1542 1543 1544 1545 1547 1548 1548 1549 1550 1551 1552 1553
1498 1499 1499 1500 1501 1502 1503 1504 1505 1506 1507 1509 1510 1511 1512 1514 1515 1516 1518 1519 1521 1523 1525 1526 1528 1530 1532 1534 1535 1537 1539 1540 1542 1543 1544 1546 1547 1548 1548 1550 1551 1552 1553
1496 1497 1497 1498 1499 1500 1501 1502 1503 1504 1505 1506 1508 1509 1510 1512 1513 1514 1515 1517 1519 1521 1523 1524 1526 1528 1530 1532 1534 1535 1537 1539 1540 1542 1543 1544 1546 1547 1548 1549 1550 1551 1552
1493 1494 1495 1496 1497 1498 1499 1500 1501 1502 1503 1504 1506 1507 1508 1509 1510 1512 1513 1515 1517 1519 1520 1522 1524 1526 1528 1530 1532 1534 1536 1537 1539 1540 1541 1543 1544 1546 1546 1548 1548 1550 1551
1491 1492 1492 1494 1494 1496 1497 1498 1499 1500 1501 1502 1503 1505 1506 1507 1508 1509 1511 1512 1514 1517 1518 1520 1522 1524 1526 1528 1531 1533 1534 1536 1537 1538 1540 1541 1543 1544 1545 1547 1548 1549 1550
1489 1489 1490 1491 1492 1493 1494 1496 1497 1498 1499 1500 1501 1502 1503 1504 1505 1507 1508 1510 1512 1514 1516 1518 1520 1522 1524 1526 1529 1531 1532 1534 1536 1537 1538 1540 1541 1542 1544 1545 1547 1548 1549
1486 1486 1488 1488 1490 1491 1492 1493 1494 1496 1497 1498 1499 1500 1501 1502 1503 1504 1505 1507 1510 1512 1514 1516 1518 1520 1522 1524 1526 1529 1531 1532 1534 1535 1536 1538 1539 1541 1542 1543 1545 1546 1547
1483 1484 1485 1486 1487 1488 1489 1491 1492 1493 1495 1496 1497 1498 1499 1500 1501 1502 1504 1505 1508 1510 1512 1513 1516 1518 1520 1522 1524 1526 1528 1530 1531 1532 1534 1535 1537 1538 1540 1541 1543 1544 1545
1481 1482 1482 1483 1484 1485 1487 1488 1490 1491 1492 1493 1494 1495 1496 1497 1499 1500 1502 1503 1505 1507 1509 1511 1513 1515 1517 1519 1522 1524 1525 1527 1529 1530 1532 1533 1535 1536 1537 1539 1540 1542 1543
1479 1479 1480 1481 1482 1483 1484 1486 1487 1488 1489 1491 1491 1492 1493 1494 1496 1498 1500 1501 1503 1505 1507 1509 1511 1513 1515 1517 1519 1521 1523 1525 1527 1528 1529 1531 1533 1534 1535 1536 1538 1539 1540
1476 1476 1477 1478 1479 1480 1481 1483 1484 1485 1486 1488 1489 1490 1491 1492 1494 1496 1497 1499 1500 1502 1504 1506 1508 1510 1512 1514 1516 1519 1521 1523 1524 1526 1527 1529 1530 1532 1533 1534 1535 1536 1537
1473 1474 1475 1476 1477 1478 1479 1480 1482 1483 1484 1485 1486 1487 1488 1490 1491 1493 1494 1496 1498 1499 1501 1503 1505 1507 1509 1512 1514 1516 1518 1521 1522 1524 1525 1526 1527 1529 1530 1531 1532 1534 1535
1471 1472 1472 1473 1474 1475 1477 1478 1479 1480 1481 1482 1483 1484 1486 1487 1489 1490 1491 1493 1495 1497 1498 1500 1502 1504 1506 1509 1512 1514 1516 1516 1518 1520 1521 1523 1524 1526 1527 1528 1529 1531 1532
1469 1469 1470 1471 1472 1473 1474 1475 1476 1477 1478 1479 1480 1481 1483 1484 1486 1487 1489 1491 1492 1494 1496 1498 1500 1502 1504 1505 1508 1510 1513 1513 1515 1516 1519 1520 1521 1523 1524 1525 1526 1528 1529
1467 1467 1468 1469 1469 1470 1471 1472 1473 1474 1475 1477 1478 1479 1480 1481 1483 1484 1486 1488 1489 1491 1493 1495 1496 1499 1501 1502 1504 1506 1509 1510 1512 1513 1514 1516 1518 1519 1520 1522 1523 1524 1525
1465 1465 1466 1467 1467 1468 1469 1470 1470 1471 1473 1473 1474 1476 1477 1478 1480 1481 1483 1484 1486 1488 1490 1491 1493 1495 1497 1499 1501 1503 1505 1507 1508 1509 1511 1512 1514 1515 1517 1518 1519 1520 1522